TimeEDT,TemperatureF,Dew PointF,Humidity,Sea Level PressureIn,VisibilityMPH,Wind Direction,Wind SpeedMPH,Gust SpeedMPH,PrecipitationIn,Events,Conditions,WindDirDegrees,DateUTC
12:53 AM,48.9,39.9,71,30.12,10.0,North,3.5,-,N/A,,Overcast,360,2012-10-07 04:53:00
1:53 AM,48.9,39.0,69,30.11,10.0,NNW,4.6,-,N/A,,Overcast,330,2012-10-07 05:53:00
2:53 AM,48.9,37.9,66,30.11,10.0,NE,3.5,-,N/A,,Overcast,50,2012-10-07 06:53:00
3:53 AM,48.0,39.0,71,30.11,10.0,NNW,3.5,-,N/A,,Overcast,340,2012-10-07 07:53:00
4:53 AM,46.9,39.0,74,30.11,10.0,North,3.5,-,N/A,,Overcast,350,2012-10-07 08:53:00
5:53 AM,46.9,37.9,71,30.10,10.0,NNE,4.6,-,N/A,,Overcast,20,2012-10-07 09:53:00
6:53 AM,46.0,39.0,76,30.12,10.0,Calm,Calm,-,N/A,,Overcast,0,2012-10-07 10:53:00
7:53 AM,46.0,37.9,73,30.12,10.0,NNW,3.5,-,N/A,,Overcast,340,2012-10-07 11:53:00
8:53 AM,46.9,37.0,68,30.14,10.0,NNW,4.6,-,N/A,,Overcast,340,2012-10-07 12:53:00
9:53 AM,48.9,35.1,59,30.13,10.0,NNE,6.9,-,N/A,,Overcast,30,2012-10-07 13:53:00
10:53 AM,50.0,37.0,61,30.13,10.0,NW,3.5,-,N/A,,Overcast,310,2012-10-07 14:53:00
11:53 AM,48.9,37.0,64,30.14,10.0,Calm,Calm,-,N/A,,Overcast,0,2012-10-07 15:53:00
12:53 PM,48.9,37.9,66,30.16,10.0,WNW,9.2,-,N/A,,Overcast,300,2012-10-07 16:53:00
1:53 PM,48.9,39.0,69,30.15,10.0,West,3.5,-,0.00,Rain,Light Rain,280,2012-10-07 17:53:00
2:53 PM,48.0,37.0,66,30.16,10.0,NNW,4.6,-,0.00,,Overcast,330,2012-10-07 18:53:00
3:40 PM,48.2,39.2,71,30.16,10.0,WNW,4.6,-,0.00,,Overcast,290,2012-10-07 19:40:00
3:53 PM,48.0,37.9,68,30.17,10.0,Variable,4.6,-,0.00,,Overcast,0,2012-10-07 19:53:00
4:01 PM,48.2,37.4,66,30.17,10.0,NW,6.9,-,0.00,Rain,Light Rain,310,2012-10-07 20:01:00
4:13 PM,46.4,37.4,71,30.16,10.0,WNW,8.1,-,0.00,Rain,Light Rain,300,2012-10-07 20:13:00
4:53 PM,50.0,37.0,61,30.17,10.0,WNW,6.9,17.3,0.00,,Overcast,300,2012-10-07 20:53:00
5:53 PM,50.0,34.0,54,30.17,10.0,SW,5.8,-,N/A,,Clear,220,2012-10-07 21:53:00
6:53 PM,46.9,36.0,66,30.19,10.0,Calm,Calm,-,N/A,,Scattered Clouds,0,2012-10-07 22:53:00
7:53 PM,45.0,39.9,82,30.19,10.0,Calm,Calm,-,N/A,,Overcast,0,2012-10-07 23:53:00
8:53 PM,46.0,39.0,76,30.22,10.0,Calm,Calm,-,N/A,,Overcast,0,2012-10-08 00:53:00
9:53 PM,45.0,41.0,86,30.23,10.0,Calm,Calm,-,N/A,,Overcast,0,2012-10-08 01:53:00
10:53 PM,45.0,39.0,80,30.22,10.0,Calm,Calm,-,N/A,,Overcast,0,2012-10-08 02:53:00
11:53 PM,42.1,39.9,92,30.23,7.0,Calm,Calm,-,N/A,,Overcast,0,2012-10-08 03:53:00